GFSNE_500_temp_144.txt.gz
Temp
-13 -13 -14 -13 -13 -14 -14 -14 -14 -13 -13 -14 -13 -13 -13 -13 -12 -12 -12 -13 -13 -13 -13 -13 -13 -13 -13 -13 -14 -14 -14 -14 -14 -14 -13 -14 -14 -14
-14 -14 -14 -14 -14 -13 -13 -14 -14 -14 -13 -14 -14 -14 -14 -13 -13 -12 -13 -13 -13 -13 -13 -13 -13 -13 -13 -13 -13 -14 -14 -14 -14 -14 -14 -14 -14 -14
-14 -14 -14 -14 -14 -13 -13 -14 -14 -14 -14 -14 -14 -14 -14 -14 -14 -13 -13 -13 -13 -13 -13 -13 -14 -14 -13 -13 -13 -14 -14 -14 -14 -14 -14 -14 -15 -14
-14 -14 -14 -14 -14 -14 -14 -14 -14 -14 -14 -14 -14 -13 -13 -14 -14 -14 -14 -14 -13 -13 -13 -13 -13 -13 -13 -13 -13 -13 -14 -14 -14 -14 -15 -15 -14 -15
-15 -14 -14 -14 -14 -14 -14 -14 -14 -14 -14 -14 -14 -14 -14 -13 -14 -14 -14 -14 -14 -13 -14 -13 -13 -14 -14 -14 -14 -14 -13 -14 -14 -14 -15 -15 -15 -15
-15 -15 -15 -15 -15 -14 -14 -14 -14 -14 -14 -14 -14 -14 -14 -14 -14 -14 -14 -14 -14 -14 -13 -13 -13 -14 -14 -14 -14 -14 -14 -14 -14 -15 -14 -14 -15 -15
-15 -16 -15 -14 -14 -14 -14 -14 -14 -15 -15 -14 -14 -14 -14 -15 -15 -15 -14 -14 -14 -14 -14 -14 -14 -14 -14 -14 -14 -14 -14 -15 -14 -14 -15 -15 -15 -15
-16 -15 -14 -14 -14 -15 -15 -14 -14 -14 -14 -14 -12 -14 -15 -15 -15 -15 -15 -15 -14 -14 -14 -14 -14 -14 -14 -14 -14 -14 -14 -14 -15 -15 -15 -15 -15 -15
-15 -14 -14 -14 -15 -14 -14 -14 -15 -14 -14 -14 -14 -14 -15 -15 -15 -15 -16 -15 -14 -14 -14 -14 -14 -14 -14 -14 -14 -14 -13 -14 -15 -15 -16 -16 -15 -15
-14 -14 -14 -14 -14 -14 -14 -14 -14 -14 -13 -14 -14 -14 -15 -15 -16 -15 -15 -15 -15 -14 -14 -14 -14 -14 -14 -14 -14 -14 -14 -14 -15 -15 -15 -16 -15 -16
-14 -14 -14 -14 -14 -13 -14 -14 -14 -14 -14 -14 -14 -15 -15 -15 -15 -15 -15 -15 -15 -15 -15 -14 -14 -14 -14 -14 -14 -14 -14 -14 -15 -15 -15 -15 -15 -16
-14 -14 -14 -14 -14 -14 -14 -14 -14 -14 -14 -14 -14 -14 -15 -16 -15 -15 -15 -15 -15 -15 -15 -15 -15 -15 -15 -15 -14 -14 -14 -14 -15 -15 -15 -15 -16 -17
-14 -14 -14 -14 -14 -15 -14 -14 -14 -15 -15 -15 -15 -15 -16 -16 -15 -15 -15 -15 -15 -15 -15 -15 -15 -15 -15 -15 -15 -15 -15 -15 -15 -15 -15 -16 -17 -18
-15 -15 -14 -15 -15 -15 -15 -15 -15 -15 -15 -15 -15 -16 -16 -15 -15 -15 -15 -16 -16 -16 -16 -15 -15 -15 -15 -15 -15 -15 -15 -15 -16 -16 -16 -17 -17 -17
-15 -15 -15 -15 -15 -16 -16 -15 -16 -16 -16 -15 -15 -15 -15 -16 -16 -16 -16 -16 -16 -16 -16 -16 -16 -16 -16 -16 -16 -16 -16 -16 -16 -17 -17 -17 -17 -17
-16 -16 -16 -16 -17 -16 -16 -15 -16 -16 -16 -15 -15 -16 -16 -16 -16 -16 -16 -16 -16 -16 -16 -16 -16 -16 -16 -16 -16 -16 -16 -17 -17 -17 -17 -17 -17 -17
-16 -16 -16 -16 -16 -16 -16 -16 -16 -15 -15 -15 -16 -16 -16 -17 -17 -16 -16 -16 -17 -17 -17 -16 -17 -17 -17 -17 -17 -17 -17 -17 -18 -18 -17 -18 -18 -18
-16 -16 -16 -16 -16 -16 -16 -16 -16 -16 -16 -16 -16 -16 -16 -17 -16 -16 -16 -17 -17 -17 -17 -17 -17 -18 -18 -18 -18 -18 -18 -18 -18 -18 -18 -18 -18 -18
-17 -17 -17 -17 -16 -16 -16 -16 -16 -16 -16 -16 -17 -17 -17 -17 -17 -17 -16 -17 -17 -17 -17 -17 -18 -19 -19 -19 -19 -19 -18 -18 -18 -18 -18 -19 -19 -20
-17 -17 -17 -17 -17 -17 -17 -17 -17 -17 -17 -17 -17 -17 -17 -17 -17 -17 -18 -18 -18 -18 -18 -19 -19 -19 -19 -19 -19 -19 -19 -19 -19 -20 -20 -21 -22 -22
-18 -18 -18 -18 -18 -18 -18 -18 -18 -18 -18 -18 -18 -18 -18 -19 -19 -18 -18 -18 -18 -18 -19 -20 -20 -21 -21 -21 -21 -21 -21 -21 -21 -21 -21 -22 -23 -23
-19 -19 -19 -19 -19 -19 -19 -19 -19 -19 -19 -19 -19 -19 -19 -19 -19 -19 -19 -20 -20 -20 -20 -20 -20 -20 -20 -21 -21 -21 -21 -21 -21 -22 -22 -23 -23 -23
-20 -20 -20 -20 -20 -20 -20 -20 -20 -20 -20 -20 -20 -20 -20 -20 -20 -20 -20 -20 -20 -20 -21 -21 -21 -21 -21 -22 -22 -22 -22 -22 -22 -22 -22 -23 -23 -23

GFSNE_500_temp_147.txt.gz
Temp
-15 -14 -13 -13 -13 -13 -13 -13 -12 -12 -13 -13 -12 -12 -12 -12 -13 -13 -13 -13 -13 -13 -13 -13 -13 -13 -13 -13 -13 -13 -13 -13 -14 -14 -14 -14 -14 -14
-15 -14 -14 -13 -13 -13 -13 -13 -12 -12 -12 -13 -13 -13 -12 -13 -13 -13 -13 -13 -13 -13 -13 -13 -13 -13 -13 -13 -13 -14 -13 -13 -14 -14 -14 -14 -14 -14
-15 -14 -14 -14 -13 -14 -14 -14 -13 -13 -13 -13 -13 -14 -14 -13 -13 -12 -13 -13 -13 -13 -13 -13 -13 -13 -13 -13 -13 -13 -14 -13 -13 -14 -14 -14 -15 -15
-15 -14 -15 -14 -14 -14 -14 -14 -14 -13 -13 -13 -13 -13 -14 -14 -14 -14 -14 -13 -13 -13 -13 -13 -13 -13 -13 -13 -13 -14 -14 -14 -14 -14 -14 -14 -14 -15
-15 -15 -16 -14 -14 -14 -15 -14 -14 -14 -14 -14 -14 -14 -14 -14 -14 -14 -14 -14 -14 -14 -14 -14 -13 -13 -13 -13 -13 -13 -14 -14 -14 -14 -14 -14 -15 -15
-15 -16 -16 -15 -14 -15 -15 -15 -14 -14 -14 -14 -14 -13 -13 -14 -13 -14 -14 -14 -14 -14 -14 -14 -14 -14 -14 -13 -13 -13 -14 -14 -14 -14 -14 -14 -14 -15
-15 -15 -14 -15 -15 -15 -15 -15 -14 -14 -14 -13 -13 -13 -13 -14 -14 -14 -14 -14 -14 -14 -14 -14 -14 -14 -14 -14 -14 -13 -14 -14 -14 -14 -14 -14 -14 -15
-15 -14 -14 -15 -15 -15 -14 -14 -14 -14 -14 -14 -13 -14 -14 -14 -14 -14 -14 -15 -14 -14 -14 -14 -13 -14 -14 -14 -14 -14 -14 -14 -14 -14 -14 -14 -14 -15
-14 -14 -14 -15 -15 -15 -15 -14 -14 -14 -14 -14 -14 -14 -14 -14 -14 -14 -14 -14 -14 -15 -14 -14 -14 -14 -14 -14 -14 -14 -14 -14 -14 -14 -14 -14 -14 -15
-15 -15 -15 -15 -15 -15 -14 -14 -14 -14 -14 -14 -13 -14 -14 -14 -14 -13 -14 -15 -15 -15 -15 -14 -15 -14 -14 -15 -15 -15 -15 -15 -15 -15 -14 -14 -14 -15
-15 -15 -15 -15 -15 -14 -14 -14 -14 -13 -14 -14 -14 -14 -14 -14 -14 -14 -14 -14 -15 -16 -15 -14 -15 -15 -15 -15 -15 -15 -15 -16 -15 -15 -15 -15 -15 -15
-15 -15 -15 -15 -14 -14 -14 -14 -14 -14 -14 -14 -14 -14 -14 -14 -14 -14 -14 -14 -15 -16 -16 -15 -15 -15 -15 -15 -15 -15 -16 -15 -15 -15 -15 -15 -15 -15
-14 -15 -14 -14 -14 -14 -14 -14 -14 -14 -14 -14 -14 -14 -14 -14 -14 -14 -15 -15 -16 -15 -15 -15 -15 -15 -15 -15 -15 -16 -16 -16 -15 -15 -15 -15 -15 -15
-15 -15 -15 -14 -14 -14 -14 -14 -14 -14 -15 -15 -15 -15 -15 -15 -15 -15 -15 -15 -15 -15 -15 -15 -15 -15 -15 -15 -16 -16 -16 -16 -16 -16 -16 -16 -16 -17
-15 -15 -15 -15 -14 -15 -15 -15 -15 -15 -15 -15 -15 -15 -15 -15 -15 -15 -15 -15 -15 -15 -16 -15 -15 -15 -15 -15 -15 -15 -16 -16 -16 -17 -17 -17 -17 -17
-15 -15 -15 -15 -15 -15 -15 -16 -15 -16 -15 -15 -16 -16 -16 -16 -15 -15 -15 -16 -16 -16 -16 -16 -15 -15 -15 -15 -15 -15 -16 -16 -16 -18 -18 -18 -18 -18
-15 -16 -16 -16 -16 -16 -16 -16 -16 -16 -16 -16 -16 -16 -16 -16 -15 -15 -16 -16 -16 -16 -16 -16 -16 -16 -16 -16 -16 -16 -16 -16 -17 -19 -19 -19 -18 -18
-16 -16 -16 -17 -16 -16 -16 -16 -17 -16 -16 -16 -16 -16 -16 -16 -15 -16 -16 -16 -16 -17 -16 -16 -16 -16 -16 -16 -16 -16 -17 -17 -18 -19 -19 -20 -19 -19
-17 -17 -17 -17 -17 -17 -17 -17 -16 -16 -16 -16 -16 -16 -16 -16 -16 -16 -16 -17 -17 -16 -16 -16 -17 -17 -17 -17 -17 -18 -18 -18 -18 -19 -19 -20 -20 -20
-18 -17 -17 -17 -17 -17 -17 -17 -17 -17 -17 -17 -17 -17 -17 -17 -17 -17 -17 -17 -17 -17 -17 -17 -17 -18 -18 -18 -18 -18 -18 -19 -19 -20 -21 -21 -21 -21
-18 -18 -18 -18 -18 -18 -18 -18 -18 -17 -18 -18 -18 -18 -18 -18 -18 -18 -18 -18 -18 -19 -19 -19 -18 -19 -19 -19 -19 -20 -21 -21 -21 -21 -21 -21 -21 -21
-19 -19 -19 -18 -18 -18 -18 -18 -18 -19 -18 -18 -19 -18 -18 -19 -19 -19 -19 -19 -19 -19 -19 -19 -20 -20 -20 -20 -21 -21 -21 -21 -21 -21 -22 -22 -22 -22
-20 -20 -20 -19 -19 -19 -19 -19 -19 -19 -19 -19 -19 -19 -20 -20 -20 -20 -20 -20 -20 -20 -20 -20 -20 -20 -21 -21 -21 -21 -22 -22 -22 -22 -22 -22 -22 -22

GFSNE_500_temp_150.txt.gz
Temp
-15 -15 -15 -16 -16 -15 -15 -15 -14 -14 -14 -13 -13 -13 -12 -12 -12 -12 -12 -12 -12 -12 -12 -12 -12 -12 -13 -13 -13 -13 -13 -13 -13 -13 -13 -14 -14 -15
-15 -15 -14 -15 -16 -15 -15 -15 -15 -14 -14 -14 -14 -13 -13 -13 -13 -13 -12 -12 -13 -13 -13 -13 -13 -13 -13 -13 -13 -13 -13 -13 -13 -13 -14 -14 -14 -14
-15 -15 -14 -15 -16 -16 -15 -15 -15 -14 -14 -14 -14 -14 -13 -13 -13 -13 -13 -13 -13 -13 -13 -13 -13 -13 -13 -13 -13 -13 -13 -13 -13 -13 -14 -14 -14 -14
-13 -15 -14 -15 -16 -16 -15 -15 -15 -14 -14 -14 -14 -14 -14 -14 -14 -14 -13 -13 -14 -14 -14 -14 -13 -13 -13 -13 -13 -14 -14 -13 -13 -13 -13 -14 -14 -14
-15 -15 -14 -15 -16 -16 -15 -15 -15 -15 -14 -14 -13 -14 -14 -14 -14 -14 -14 -14 -14 -14 -14 -14 -13 -13 -13 -13 -13 -13 -14 -14 -14 -14 -14 -14 -14 -14
-15 -14 -15 -15 -15 -15 -15 -15 -15 -15 -14 -14 -14 -14 -14 -14 -14 -14 -14 -14 -14 -14 -14 -13 -13 -13 -13 -14 -13 -13 -13 -14 -14 -14 -14 -14 -14 -14
-14 -14 -13 -15 -16 -16 -15 -15 -15 -15 -15 -15 -14 -14 -14 -14 -14 -14 -14 -13 -14 -14 -14 -14 -13 -14 -14 -14 -13 -13 -13 -13 -14 -14 -13 -14 -14 -14
-14 -14 -13 -15 -16 -16 -16 -15 -15 -15 -15 -14 -14 -14 -14 -14 -14 -14 -14 -14 -13 -14 -14 -14 -13 -14 -14 -14 -14 -13 -13 -14 -14 -14 -14 -14 -14 -14
-14 -14 -12 -14 -16 -16 -16 -15 -15 -15 -14 -14 -14 -14 -14 -14 -14 -14 -14 -13 -13 -13 -13 -13 -13 -13 -14 -14 -14 -14 -14 -14 -14 -14 -14 -14 -15 -15
-14 -14 -13 -13 -14 -15 -15 -15 -15 -14 -14 -14 -14 -14 -14 -14 -14 -14 -14 -14 -13 -14 -14 -13 -13 -13 -14 -14 -15 -15 -14 -14 -14 -14 -14 -14 -15 -15
-13 -13 -14 -14 -13 -14 -14 -14 -15 -14 -14 -14 -14 -14 -14 -14 -14 -14 -14 -13 -13 -14 -14 -14 -14 -14 -14 -14 -15 -15 -15 -15 -14 -14 -15 -15 -15 -15
-14 -14 -14 -14 -14 -14 -14 -14 -14 -14 -14 -14 -14 -14 -14 -14 -14 -14 -14 -14 -14 -14 -14 -14 -14 -15 -15 -15 -15 -15 -15 -15 -15 -15 -15 -15 -15 -15
-14 -14 -14 -14 -14 -14 -14 -13 -14 -15 -14 -14 -14 -13 -14 -14 -14 -14 -14 -13 -14 -14 -14 -14 -14 -15 -15 -15 -15 -15 -15 -15 -16 -15 -16 -15 -15 -15
-15 -14 -15 -14 -15 -14 -14 -14 -14 -15 -15 -14 -14 -14 -14 -14 -14 -14 -14 -14 -15 -15 -14 -14 -15 -15 -15 -15 -15 -15 -16 -16 -16 -16 -16 -16 -15 -15
-16 -15 -15 -14 -14 -14 -15 -15 -14 -15 -15 -14 -14 -15 -14 -14 -14 -15 -15 -15 -15 -15 -15 -15 -15 -15 -15 -15 -16 -16 -16 -15 -16 -16 -16 -16 -15 -15
-15 -15 -14 -14 -15 -15 -15 -15 -15 -15 -15 -14 -14 -15 -15 -15 -15 -15 -15 -15 -15 -15 -15 -15 -15 -16 -16 -16 -16 -16 -16 -15 -15 -15 -15 -16 -16 -16
-16 -16 -15 -16 -16 -15 -14 -15 -15 -15 -15 -15 -15 -15 -15 -15 -16 -16 -16 -16 -16 -15 -15 -15 -16 -16 -16 -16 -16 -16 -15 -15 -16 -16 -16 -16 -16 -17
-17 -16 -16 -16 -16 -16 -16 -16 -16 -16 -16 -16 -16 -16 -16 -16 -16 -16 -16 -16 -16 -16 -16 -16 -16 -17 -17 -16 -16 -16 -16 -16 -16 -17 -17 -17 -17 -18
-17 -17 -17 -16 -16 -16 -16 -16 -16 -16 -16 -17 -17 -17 -17 -16 -17 -16 -16 -16 -16 -16 -17 -17 -16 -17 -17 -16 -16 -16 -16 -17 -17 -17 -17 -18 -18 -18
-19 -19 -18 -18 -16 -16 -16 -16 -16 -16 -17 -18 -18 -18 -17 -17 -17 -17 -17 -17 -17 -17 -17 -17 -17 -17 -17 -17 -17 -17 -17 -18 -18 -18 -18 -18 -19 -20
-19 -19 -19 -18 -18 -19 -19 -19 -19 -19 -19 -18 -18 -17 -17 -17 -17 -17 -17 -17 -17 -17 -18 -18 -18 -18 -18 -18 -18 -18 -18 -19 -19 -19 -20 -20 -20 -21
-19 -19 -19 -19 -19 -19 -19 -19 -19 -19 -19 -18 -18 -18 -18 -18 -18 -18 -18 -18 -18 -18 -19 -19 -19 -19 -19 -19 -19 -19 -20 -20 -20 -21 -21 -21 -22 -22
-20 -20 -20 -20 -20 -20 -20 -19 -19 -19 -19 -19 -19 -19 -19 -19 -19 -19 -19 -19 -19 -20 -20 -20 -20 -20 -20 -20 -20 -20 -21 -21 -21 -22 -22 -22 -22 -22

GFSNE_500_temp_156.txt.gz
Temp
-16 -16 -14 -15 -15 -14 -15 -15 -15 -14 -13 -14 -14 -15 -14 -14 -13 -13 -13 -13 -13 -13 -13 -13 -13 -12 -12 -13 -13 -13 -12 -13 -13 -13 -13 -13 -13 -13
-17 -17 -16 -16 -15 -15 -14 -15 -15 -15 -13 -14 -14 -15 -15 -14 -13 -13 -13 -13 -13 -13 -13 -13 -13 -13 -13 -13 -13 -13 -13 -13 -13 -13 -13 -13 -13 -13
-18 -17 -17 -16 -15 -15 -15 -14 -15 -15 -14 -14 -14 -14 -14 -13 -13 -13 -13 -13 -13 -13 -13 -13 -13 -13 -13 -13 -13 -13 -14 -14 -13 -13 -13 -14 -13 -13
-19 -18 -19 -18 -16 -15 -15 -14 -15 -15 -15 -14 -15 -14 -14 -14 -14 -13 -14 -13 -13 -13 -13 -13 -13 -13 -13 -14 -14 -14 -14 -14 -14 -14 -14 -14 -13 -13
-19 -18 -18 -18 -16 -15 -15 -14 -14 -15 -15 -14 -15 -15 -14 -14 -14 -13 -13 -13 -13 -13 -13 -13 -13 -14 -14 -14 -14 -14 -14 -14 -14 -14 -14 -14 -14 -14
-18 -18 -18 -17 -15 -16 -15 -16 -15 -15 -15 -15 -15 -14 -14 -14 -14 -14 -13 -13 -14 -14 -14 -13 -13 -14 -14 -14 -14 -14 -14 -14 -14 -14 -14 -14 -14 -14
-18 -17 -17 -17 -16 -15 -14 -14 -15 -16 -16 -15 -15 -14 -14 -14 -14 -14 -14 -14 -14 -14 -14 -14 -13 -14 -14 -14 -14 -14 -14 -14 -14 -14 -14 -14 -14 -14
-17 -16 -16 -17 -17 -17 -15 -14 -14 -16 -15 -16 -15 -14 -14 -14 -14 -14 -14 -14 -14 -14 -14 -14 -14 -14 -14 -14 -14 -14 -14 -14 -14 -14 -14 -15 -15 -15
-17 -16 -16 -16 -17 -17 -16 -15 -14 -14 -16 -15 -16 -15 -15 -15 -15 -14 -14 -14 -14 -15 -15 -14 -14 -14 -14 -14 -14 -14 -14 -14 -14 -15 -14 -14 -15 -15
-17 -17 -16 -16 -17 -17 -17 -14 -13 -14 -14 -15 -15 -15 -15 -15 -15 -15 -14 -14 -14 -14 -14 -14 -14 -14 -14 -15 -14 -14 -14 -14 -14 -14 -14 -14 -14 -15
-17 -17 -16 -16 -16 -17 -15 -14 -13 -13 -14 -14 -14 -15 -15 -15 -15 -15 -14 -14 -14 -14 -14 -14 -15 -14 -15 -14 -14 -14 -14 -14 -14 -14 -14 -14 -15 -15
-16 -17 -17 -16 -16 -16 -15 -13 -12 -12 -13 -14 -14 -14 -15 -15 -15 -15 -15 -14 -15 -14 -14 -14 -15 -14 -13 -14 -14 -14 -14 -14 -14 -15 -15 -15 -14 -14
-16 -16 -17 -17 -17 -17 -16 -13 -13 -12 -13 -13 -13 -14 -15 -15 -16 -16 -15 -15 -15 -15 -14 -14 -14 -14 -15 -13 -14 -14 -14 -14 -14 -15 -14 -15 -15 -14
-16 -16 -17 -16 -16 -16 -16 -15 -13 -13 -12 -12 -13 -14 -15 -15 -15 -16 -15 -15 -15 -15 -15 -14 -14 -14 -14 -13 -15 -14 -14 -14 -15 -15 -15 -15 -15 -15
-17 -16 -16 -16 -16 -16 -15 -14 -13 -12 -12 -12 -13 -13 -14 -14 -15 -15 -15 -15 -15 -14 -14 -14 -15 -15 -14 -14 -15 -15 -15 -15 -15 -15 -15 -15 -15 -16
-17 -16 -16 -15 -15 -15 -15 -15 -14 -14 -15 -15 -15 -14 -15 -14 -14 -14 -15 -14 -14 -15 -15 -15 -15 -15 -15 -14 -15 -15 -15 -16 -15 -15 -16 -16 -16 -16
-18 -17 -16 -16 -15 -15 -15 -14 -14 -14 -14 -13 -14 -14 -15 -15 -14 -14 -15 -15 -15 -15 -15 -15 -15 -15 -15 -15 -16 -16 -16 -16 -15 -16 -16 -16 -16 -16
-17 -17 -17 -17 -16 -16 -15 -15 -14 -15 -14 -14 -14 -15 -14 -14 -15 -15 -15 -15 -15 -15 -15 -15 -15 -15 -16 -16 -16 -16 -16 -16 -17 -16 -16 -17 -17 -17
-18 -17 -17 -17 -17 -16 -16 -16 -16 -15 -15 -15 -15 -15 -15 -15 -15 -15 -15 -15 -15 -16 -16 -16 -16 -16 -16 -16 -17 -17 -17 -17 -17 -17 -17 -17 -17 -17
-19 -18 -17 -17 -17 -17 -17 -18 -17 -17 -16 -15 -15 -15 -15 -15 -15 -15 -15 -16 -16 -16 -16 -16 -16 -17 -17 -17 -17 -17 -17 -18 -17 -17 -18 -18 -18 -18
-20 -19 -19 -18 -18 -18 -17 -18 -18 -18 -17 -16 -16 -17 -16 -16 -16 -16 -16 -16 -17 -17 -17 -17 -17 -17 -17 -18 -18 -18 -18 -18 -18 -18 -18 -19 -19 -19
-22 -21 -20 -19 -19 -19 -18 -18 -18 -17 -17 -17 -17 -17 -17 -17 -17 -17 -17 -17 -17 -17 -17 -17 -18 -17 -18 -18 -19 -19 -19 -19 -18 -19 -19 -19 -20 -20
-23 -23 -22 -21 -20 -20 -20 -19 -19 -18 -18 -18 -18 -18 -18 -18 -18 -18 -18 -18 -18 -18 -18 -18 -18 -18 -19 -20 -19 -19 -19 -19 -19 -20 -20 -20 -21 -21

GFSNE_500_temp_159.txt.gz
Temp
-17 -16 -16 -15 -16 -16 -15 -15 -15 -15 -15 -15 -14 -14 -14 -14 -14 -13 -13 -13 -13 -12 -12 -12 -12 -12 -12 -12 -12 -12 -12 -12 -12 -13 -13 -13 -13 -13
-17 -17 -16 -16 -16 -17 -16 -15 -15 -12 -15 -16 -15 -14 -15 -14 -14 -14 -13 -13 -12 -12 -12 -12 -12 -12 -12 -12 -12 -12 -12 -12 -13 -13 -13 -13 -13 -13
-18 -18 -17 -18 -18 -17 -16 -16 -16 -15 -15 -16 -15 -14 -15 -14 -14 -14 -14 -13 -13 -12 -12 -12 -12 -12 -12 -12 -12 -13 -13 -13 -13 -13 -13 -13 -13 -13
-18 -18 -19 -19 -19 -18 -17 -17 -16 -14 -13 -15 -15 -15 -15 -14 -14 -14 -14 -13 -13 -13 -12 -12 -13 -13 -13 -13 -13 -13 -13 -13 -14 -14 -14 -13 -13 -13
-18 -19 -20 -20 -20 -18 -17 -17 -16 -14 -15 -16 -16 -15 -15 -14 -14 -14 -14 -13 -13 -13 -13 -12 -12 -13 -13 -13 -13 -14 -14 -14 -14 -14 -14 -14 -14 -14
-18 -18 -20 -20 -20 -18 -18 -17 -16 -16 -14 -14 -15 -15 -15 -14 -14 -14 -14 -14 -14 -13 -13 -14 -13 -13 -13 -13 -13 -14 -14 -14 -14 -14 -14 -14 -14 -14
-18 -18 -19 -20 -20 -19 -18 -17 -17 -16 -15 -16 -15 -16 -15 -14 -13 -14 -14 -14 -14 -13 -13 -13 -13 -13 -13 -13 -14 -14 -14 -14 -14 -14 -14 -14 -14 -14
-18 -18 -19 -19 -20 -19 -18 -18 -17 -16 -15 -15 -15 -15 -15 -14 -14 -14 -13 -14 -13 -13 -13 -13 -13 -14 -13 -13 -14 -14 -14 -14 -14 -14 -14 -14 -14 -14
-18 -18 -18 -19 -19 -18 -17 -18 -18 -16 -16 -14 -15 -16 -16 -15 -15 -15 -14 -14 -14 -15 -14 -14 -13 -13 -13 -13 -13 -14 -14 -14 -15 -14 -14 -14 -14 -14
-18 -17 -18 -18 -19 -18 -17 -17 -17 -17 -15 -14 -15 -16 -15 -16 -16 -16 -16 -15 -15 -15 -15 -14 -14 -13 -13 -13 -13 -14 -14 -15 -15 -13 -14 -14 -14 -14
-18 -17 -18 -18 -18 -18 -17 -16 -17 -17 -15 -15 -14 -15 -16 -16 -16 -15 -15 -16 -15 -15 -14 -14 -14 -14 -13 -13 -14 -14 -14 -15 -15 -14 -14 -14 -14 -14
-18 -17 -17 -17 -17 -18 -16 -16 -16 -16 -15 -14 -13 -14 -15 -16 -15 -16 -15 -15 -15 -15 -14 -14 -14 -14 -14 -14 -14 -14 -14 -15 -14 -14 -14 -14 -15 -14
-18 -18 -17 -17 -17 -17 -17 -16 -16 -15 -15 -13 -13 -14 -14 -14 -15 -15 -15 -15 -15 -14 -14 -14 -14 -14 -15 -14 -14 -14 -15 -15 -15 -13 -14 -14 -14 -14
-18 -18 -17 -17 -17 -17 -17 -16 -16 -16 -16 -14 -13 -14 -13 -13 -14 -14 -14 -14 -15 -15 -15 -14 -14 -14 -14 -14 -14 -14 -14 -14 -15 -14 -15 -14 -15 -15
-18 -18 -17 -17 -17 -17 -17 -17 -16 -16 -17 -16 -14 -13 -13 -13 -13 -14 -14 -14 -15 -15 -15 -15 -15 -15 -15 -14 -15 -15 -14 -14 -14 -15 -14 -14 -15 -15
-19 -18 -17 -17 -17 -17 -17 -17 -17 -17 -16 -17 -16 -15 -14 -13 -13 -13 -15 -15 -15 -14 -14 -15 -15 -15 -15 -15 -15 -14 -14 -14 -14 -15 -15 -15 -15 -15
-19 -18 -18 -17 -16 -16 -17 -16 -17 -16 -16 -16 -16 -16 -15 -14 -13 -13 -14 -14 -15 -15 -14 -15 -15 -15 -15 -15 -15 -15 -15 -15 -15 -15 -15 -15 -16 -16
-20 -18 -17 -17 -16 -17 -17 -17 -17 -16 -16 -16 -16 -16 -14 -14 -14 -14 -14 -15 -14 -13 -14 -14 -15 -15 -15 -15 -15 -15 -15 -15 -15 -15 -16 -16 -16 -16
-20 -19 -18 -17 -17 -17 -16 -16 -15 -16 -15 -15 -15 -15 -16 -15 -15 -15 -15 -15 -15 -14 -14 -15 -15 -15 -15 -15 -15 -15 -15 -16 -16 -16 -16 -16 -17 -17
-21 -20 -19 -18 -17 -17 -16 -16 -16 -16 -16 -15 -15 -15 -15 -15 -15 -15 -14 -16 -16 -15 -16 -15 -15 -15 -15 -15 -15 -16 -16 -16 -16 -16 -17 -17 -17 -18
-23 -21 -20 -19 -18 -18 -17 -17 -17 -17 -17 -16 -16 -16 -15 -15 -15 -15 -15 -16 -15 -16 -16 -15 -15 -15 -15 -15 -16 -16 -16 -16 -17 -17 -17 -18 -18 -18
-24 -23 -21 -20 -20 -19 -18 -18 -17 -18 -17 -17 -17 -17 -16 -16 -16 -16 -16 -16 -16 -16 -16 -16 -17 -16 -16 -16 -16 -16 -17 -17 -17 -17 -18 -18 -18 -19
-25 -24 -23 -22 -21 -20 -20 -19 -18 -18 -18 -18 -17 -17 -17 -17 -17 -17 -17 -16 -17 -17 -16 -16 -16 -17 -17 -17 -17 -17 -17 -17 -18 -18 -18 -19 -20 -20

GFSNE_500_temp_165.txt.gz
Temp
-16 -16 -16 -16 -16 -16 -16 -16 -16 -15 -15 -15 -16 -16 -16 -15 -16 -16 -15 -15 -14 -14 -14 -14 -13 -13 -13 -13 -12 -13 -12 -13 -12 -12 -12 -12 -12 -13
-16 -16 -16 -16 -16 -16 -17 -16 -16 -16 -15 -16 -16 -16 -16 -15 -15 -16 -15 -15 -15 -14 -14 -14 -13 -13 -13 -13 -13 -12 -12 -13 -12 -12 -12 -12 -12 -13
-17 -16 -16 -16 -16 -17 -17 -17 -16 -16 -15 -15 -15 -16 -16 -15 -15 -14 -15 -15 -14 -14 -14 -13 -13 -13 -13 -13 -13 -12 -12 -12 -12 -12 -12 -12 -12 -13
-17 -17 -17 -17 -16 -17 -17 -17 -16 -16 -16 -15 -15 -15 -15 -15 -15 -15 -15 -15 -14 -14 -14 -14 -14 -13 -13 -13 -13 -13 -12 -12 -12 -12 -12 -12 -12 -13
-17 -17 -17 -17 -17 -17 -17 -17 -17 -17 -16 -15 -15 -15 -15 -15 -15 -14 -15 -14 -15 -13 -14 -14 -14 -13 -13 -13 -13 -13 -13 -12 -12 -13 -13 -12 -12 -13
-18 -17 -17 -17 -17 -17 -17 -17 -17 -16 -16 -16 -15 -15 -15 -15 -15 -15 -14 -14 -15 -14 -15 -15 -14 -13 -13 -13 -13 -13 -13 -13 -13 -13 -13 -13 -13 -13
-18 -18 -18 -18 -17 -17 -17 -17 -17 -17 -16 -16 -16 -16 -15 -15 -15 -15 -14 -16 -15 -15 -16 -15 -14 -14 -14 -13 -13 -13 -13 -13 -14 -14 -13 -13 -13 -13
-18 -18 -18 -18 -18 -17 -17 -17 -17 -17 -17 -17 -16 -16 -15 -15 -15 -15 -15 -15 -15 -15 -15 -16 -15 -14 -14 -14 -14 -14 -14 -14 -14 -14 -13 -13 -13 -14
-18 -18 -18 -18 -18 -18 -17 -17 -17 -18 -17 -17 -17 -16 -17 -18 -18 -16 -16 -15 -16 -13 -14 -16 -15 -14 -14 -14 -14 -14 -14 -14 -14 -14 -14 -14 -14 -14
-18 -18 -18 -18 -17 -17 -17 -17 -17 -17 -17 -17 -17 -17 -18 -18 -18 -17 -16 -15 -16 -15 -15 -15 -15 -15 -14 -14 -14 -14 -15 -14 -14 -14 -14 -14 -14 -14
-22 -20 -19 -18 -18 -18 -18 -17 -17 -17 -17 -17 -17 -16 -18 -18 -18 -18 -16 -15 -15 -14 -15 -15 -15 -15 -15 -14 -14 -14 -15 -15 -15 -14 -14 -14 -14 -14
-26 -25 -23 -20 -19 -19 -18 -18 -17 -18 -18 -17 -17 -17 -18 -17 -17 -17 -17 -16 -15 -16 -16 -15 -15 -15 -15 -14 -14 -14 -14 -15 -15 -15 -14 -14 -14 -14
-26 -26 -26 -25 -23 -21 -18 -17 -17 -18 -17 -17 -18 -17 -18 -18 -17 -17 -17 -16 -15 -15 -15 -15 -15 -15 -15 -15 -15 -15 -15 -15 -15 -15 -15 -15 -14 -14
-26 -26 -26 -25 -25 -25 -22 -19 -17 -18 -17 -17 -18 -18 -18 -17 -17 -18 -17 -16 -16 -15 -16 -15 -15 -15 -15 -15 -15 -15 -15 -15 -15 -15 -15 -15 -15 -14
-27 -26 -26 -25 -24 -24 -24 -22 -19 -18 -18 -18 -18 -18 -18 -18 -18 -18 -18 -17 -15 -16 -15 -15 -16 -15 -15 -15 -15 -15 -14 -14 -15 -15 -15 -15 -15 -15
-27 -26 -25 -25 -24 -23 -22 -21 -20 -18 -18 -18 -18 -17 -18 -19 -19 -18 -17 -17 -15 -14 -16 -16 -16 -16 -15 -15 -15 -15 -15 -15 -15 -14 -14 -14 -15 -15
-27 -26 -26 -25 -24 -24 -22 -21 -19 -18 -18 -17 -17 -17 -18 -19 -18 -17 -17 -17 -17 -16 -15 -15 -16 -15 -15 -15 -15 -15 -15 -15 -15 -14 -14 -14 -15 -15
-27 -26 -26 -25 -24 -23 -22 -21 -19 -18 -18 -18 -18 -19 -19 -19 -19 -18 -17 -17 -16 -15 -15 -15 -15 -15 -15 -15 -15 -14 -15 -15 -14 -14 -14 -14 -15 -15
-27 -27 -26 -25 -25 -24 -23 -21 -20 -18 -18 -18 -19 -19 -19 -18 -19 -18 -17 -17 -17 -15 -14 -15 -15 -16 -15 -15 -15 -15 -15 -15 -15 -15 -14 -14 -15 -15
-27 -27 -26 -26 -25 -24 -23 -22 -21 -19 -19 -19 -20 -19 -19 -19 -18 -19 -18 -17 -17 -16 -16 -15 -15 -16 -16 -15 -15 -15 -15 -15 -14 -15 -15 -15 -14 -15
-27 -27 -26 -26 -25 -25 -24 -23 -22 -21 -19 -19 -20 -20 -19 -19 -19 -19 -18 -18 -17 -17 -16 -15 -16 -15 -15 -15 -15 -15 -15 -15 -15 -15 -15 -15 -14 -15
-28 -26 -26 -26 -25 -25 -24 -24 -23 -22 -20 -19 -19 -19 -19 -19 -19 -19 -18 -19 -18 -18 -17 -16 -16 -16 -16 -16 -16 -15 -15 -15 -16 -15 -15 -15 -15 -15
-28 -27 -26 -26 -26 -25 -25 -24 -23 -22 -22 -20 -20 -19 -19 -19 -19 -18 -18 -18 -18 -18 -18 -18 -18 -17 -17 -17 -16 -16 -15 -15 -15 -15 -15 -15 -16 -15

GFSNE_500_temp_168.txt.gz
Temp
-16 -16 -16 -16 -16 -16 -16 -15 -15 -14 -15 -16 -16 -16 -15 -15 -15 -16 -16 -17 -15 -15 -14 -14 -14 -13 -14 -13 -13 -13 -13 -13 -13 -13 -13 -13 -13 -13
-17 -17 -17 -17 -17 -16 -16 -16 -16 -15 -14 -15 -16 -16 -16 -15 -15 -15 -16 -16 -16 -15 -14 -14 -15 -14 -13 -13 -13 -14 -14 -13 -13 -13 -13 -13 -12 -13
-18 -18 -18 -18 -17 -17 -17 -16 -16 -16 -15 -15 -16 -16 -16 -16 -15 -15 -15 -16 -15 -15 -15 -14 -14 -14 -14 -14 -13 -13 -14 -13 -13 -13 -13 -13 -13 -12
-19 -19 -18 -18 -18 -17 -17 -17 -17 -17 -16 -15 -16 -16 -16 -16 -16 -16 -16 -15 -15 -15 -15 -15 -15 -14 -14 -14 -13 -13 -14 -13 -13 -13 -13 -13 -13 -12
-20 -19 -19 -19 -19 -18 -18 -17 -17 -17 -17 -15 -15 -16 -16 -16 -16 -16 -15 -16 -15 -15 -15 -15 -15 -14 -14 -14 -14 -14 -14 -13 -13 -13 -12 -12 -12 -13
-21 -20 -20 -19 -19 -19 -18 -18 -17 -17 -17 -17 -15 -16 -16 -17 -16 -16 -15 -15 -16 -16 -14 -14 -14 -15 -14 -14 -14 -14 -13 -13 -13 -13 -13 -12 -12 -13
-21 -21 -20 -19 -19 -19 -18 -18 -18 -17 -17 -17 -16 -16 -16 -16 -16 -17 -16 -16 -15 -15 -16 -15 -15 -15 -14 -15 -14 -14 -13 -14 -13 -13 -13 -13 -13 -13
-21 -21 -20 -20 -19 -19 -19 -18 -18 -18 -17 -17 -17 -16 -17 -16 -16 -16 -16 -16 -15 -15 -15 -14 -15 -13 -15 -15 -15 -14 -14 -14 -14 -14 -13 -13 -13 -13
-23 -22 -21 -20 -19 -19 -19 -18 -18 -18 -17 -17 -17 -16 -16 -17 -17 -16 -16 -15 -15 -16 -16 -16 -15 -14 -15 -15 -15 -15 -15 -14 -14 -14 -14 -14 -13 -13
-28 -27 -25 -23 -22 -20 -18 -18 -18 -18 -17 -17 -17 -17 -17 -17 -17 -17 -16 -16 -15 -15 -15 -15 -15 -15 -15 -15 -15 -15 -15 -15 -14 -14 -14 -14 -14 -14
-28 -28 -28 -27 -26 -24 -21 -20 -19 -18 -18 -18 -17 -17 -16 -17 -17 -17 -16 -17 -16 -15 -15 -15 -15 -15 -15 -16 -15 -15 -15 -15 -15 -14 -14 -14 -14 -14
-29 -28 -28 -28 -27 -27 -25 -23 -20 -19 -19 -18 -17 -17 -17 -17 -17 -17 -17 -16 -16 -16 -15 -15 -15 -15 -14 -15 -15 -15 -15 -15 -15 -15 -15 -14 -14 -14
-29 -28 -28 -28 -27 -27 -26 -26 -24 -22 -20 -19 -19 -17 -17 -17 -17 -17 -17 -17 -17 -17 -16 -16 -15 -15 -14 -15 -14 -15 -15 -15 -15 -15 -15 -15 -14 -15
-29 -28 -28 -27 -27 -27 -26 -26 -25 -25 -22 -20 -18 -18 -17 -17 -17 -17 -17 -17 -18 -18 -18 -18 -16 -15 -14 -14 -15 -15 -15 -15 -15 -16 -15 -15 -15 -15
-29 -28 -28 -28 -27 -27 -26 -26 -25 -24 -24 -21 -18 -18 -17 -17 -17 -17 -17 -17 -18 -17 -18 -16 -16 -16 -15 -15 -15 -16 -16 -15 -16 -16 -16 -16 -16 -16
-30 -28 -28 -28 -27 -27 -26 -25 -25 -24 -24 -22 -19 -17 -17 -17 -17 -17 -17 -17 -17 -17 -16 -17 -17 -16 -16 -15 -15 -16 -16 -16 -16 -17 -17 -16 -16 -16
-29 -28 -28 -28 -27 -27 -27 -26 -25 -24 -23 -22 -20 -18 -17 -17 -17 -18 -17 -18 -17 -18 -16 -17 -17 -17 -16 -15 -15 -15 -16 -16 -16 -16 -16 -16 -16 -16
-29 -28 -28 -27 -27 -27 -26 -25 -25 -24 -23 -21 -20 -19 -18 -18 -18 -18 -18 -18 -18 -18 -18 -17 -17 -17 -16 -16 -15 -15 -16 -16 -16 -16 -16 -16 -16 -15
-28 -28 -27 -27 -27 -26 -26 -25 -25 -24 -23 -20 -19 -19 -18 -18 -18 -18 -18 -18 -17 -18 -18 -17 -17 -17 -16 -16 -15 -15 -15 -16 -16 -16 -16 -16 -16 -16
-29 -28 -28 -27 -26 -26 -26 -26 -25 -24 -24 -22 -19 -19 -18 -18 -18 -18 -18 -19 -19 -18 -17 -17 -17 -17 -16 -16 -15 -16 -16 -16 -16 -16 -16 -16 -16 -15
-28 -28 -28 -27 -26 -26 -26 -25 -25 -25 -24 -23 -21 -20 -20 -20 -20 -19 -20 -20 -20 -19 -17 -18 -18 -17 -16 -16 -16 -16 -16 -16 -16 -16 -16 -16 -16 -15
-28 -28 -28 -28 -27 -26 -26 -25 -25 -25 -25 -24 -22 -20 -20 -20 -20 -20 -20 -20 -19 -19 -18 -18 -18 -18 -17 -16 -16 -15 -15 -16 -15 -15 -16 -15 -16 -15
-28 -28 -28 -28 -28 -27 -25 -25 -25 -25 -25 -24 -23 -21 -21 -21 -21 -20 -20 -20 -20 -20 -19 -19 -19 -18 -18 -16 -16 -16 -16 -16 -16 -15 -15 -16 -15 -16

GFSNE_500_temp_171.txt.gz
Temp
-17 -17 -17 -17 -17 -17 -17 -16 -16 -15 -15 -14 -15 -16 -16 -16 -15 -15 -16 -16 -15 -15 -15 -14 -14 -14 -14 -14 -14 -14 -14 -14 -14 -14 -13 -13 -14 -13
-18 -18 -18 -18 -18 -17 -17 -17 -17 -16 -15 -15 -15 -16 -17 -16 -16 -15 -16 -16 -15 -15 -16 -15 -14 -13 -13 -14 -14 -13 -14 -14 -14 -13 -13 -14 -13 -14
-19 -19 -19 -19 -19 -19 -18 -18 -18 -17 -16 -16 -15 -16 -17 -17 -16 -16 -16 -16 -15 -15 -15 -16 -14 -14 -13 -14 -14 -14 -14 -14 -14 -14 -13 -13 -13 -13
-20 -20 -20 -20 -20 -20 -20 -20 -19 -18 -17 -16 -16 -16 -17 -17 -17 -16 -16 -16 -16 -15 -15 -15 -15 -14 -14 -14 -13 -14 -14 -14 -14 -14 -14 -13 -13 -13
-21 -21 -21 -21 -21 -21 -21 -20 -20 -19 -18 -17 -16 -16 -16 -17 -17 -16 -16 -17 -17 -16 -15 -15 -15 -15 -14 -14 -14 -14 -14 -14 -14 -14 -14 -14 -13 -13
-23 -22 -22 -22 -21 -21 -21 -21 -21 -20 -19 -18 -17 -17 -16 -17 -17 -17 -16 -17 -17 -16 -15 -15 -15 -14 -15 -14 -13 -14 -14 -14 -14 -14 -13 -13 -13 -13
-24 -24 -23 -23 -22 -22 -21 -20 -21 -21 -20 -19 -18 -17 -17 -17 -17 -17 -17 -17 -17 -17 -16 -15 -15 -15 -15 -15 -14 -14 -13 -14 -13 -14 -14 -14 -14 -14
-25 -25 -25 -25 -24 -23 -23 -21 -20 -20 -20 -19 -19 -18 -17 -17 -17 -17 -17 -17 -17 -17 -16 -15 -15 -15 -15 -15 -14 -12 -14 -13 -13 -14 -14 -14 -14 -14
-26 -27 -27 -27 -27 -26 -25 -24 -22 -20 -19 -19 -19 -18 -18 -17 -17 -17 -17 -17 -16 -17 -16 -15 -16 -15 -15 -15 -15 -14 -14 -14 -13 -14 -14 -14 -14 -14
-28 -29 -29 -29 -29 -29 -28 -27 -26 -23 -21 -19 -19 -18 -18 -17 -17 -17 -18 -17 -17 -17 -17 -16 -16 -15 -15 -15 -15 -15 -14 -15 -14 -14 -14 -14 -14 -14
-29 -30 -30 -30 -29 -29 -29 -28 -28 -27 -25 -21 -19 -18 -18 -18 -18 -17 -17 -18 -17 -17 -17 -16 -16 -16 -15 -15 -15 -15 -14 -15 -14 -14 -14 -14 -15 -15
-29 -30 -30 -30 -29 -29 -29 -28 -28 -27 -27 -26 -22 -18 -18 -18 -18 -18 -17 -17 -17 -17 -17 -16 -16 -16 -16 -15 -15 -15 -14 -15 -15 -15 -15 -15 -15 -15
-29 -29 -29 -29 -29 -29 -29 -28 -28 -27 -27 -26 -25 -22 -18 -18 -18 -17 -17 -17 -17 -16 -17 -17 -16 -16 -16 -15 -15 -15 -15 -16 -15 -15 -15 -15 -15 -15
-28 -29 -29 -29 -29 -29 -29 -28 -27 -27 -27 -26 -26 -25 -22 -19 -18 -17 -17 -17 -17 -17 -17 -17 -16 -16 -15 -15 -15 -15 -15 -15 -15 -16 -15 -15 -15 -15
-28 -28 -29 -29 -28 -28 -28 -28 -27 -27 -27 -26 -26 -25 -24 -21 -19 -18 -17 -17 -17 -17 -17 -17 -16 -16 -15 -15 -15 -15 -15 -16 -16 -15 -15 -15 -15 -15
-27 -28 -29 -29 -29 -28 -28 -28 -27 -27 -27 -26 -25 -25 -24 -23 -20 -18 -18 -17 -17 -17 -17 -17 -17 -17 -16 -15 -15 -15 -15 -15 -15 -15 -15 -15 -15 -15
-27 -27 -28 -29 -29 -29 -28 -27 -27 -27 -27 -26 -26 -25 -24 -23 -22 -19 -18 -17 -17 -17 -17 -17 -17 -16 -16 -16 -15 -14 -15 -15 -14 -14 -15 -15 -15 -15
-27 -27 -28 -28 -28 -28 -28 -27 -27 -27 -27 -26 -26 -25 -24 -23 -22 -20 -18 -18 -18 -18 -17 -17 -17 -17 -18 -17 -18 -17 -16 -15 -14 -15 -15 -16 -15 -15
-27 -27 -28 -28 -28 -28 -27 -27 -26 -27 -26 -26 -26 -25 -24 -22 -22 -20 -18 -18 -18 -17 -17 -17 -18 -17 -18 -18 -17 -17 -16 -16 -15 -15 -15 -16 -15 -16
-27 -27 -27 -28 -28 -28 -28 -26 -26 -26 -26 -26 -26 -26 -24 -21 -21 -20 -18 -18 -17 -17 -17 -18 -18 -18 -18 -17 -17 -16 -16 -16 -15 -15 -15 -15 -15 -16
-27 -27 -27 -27 -28 -28 -28 -27 -26 -25 -26 -26 -25 -25 -24 -21 -21 -20 -19 -18 -18 -17 -17 -18 -18 -18 -18 -17 -17 -17 -17 -16 -15 -15 -15 -16 -16 -16
-27 -27 -27 -27 -27 -28 -28 -27 -26 -26 -25 -26 -25 -25 -24 -22 -20 -20 -20 -19 -19 -18 -18 -18 -18 -18 -18 -18 -17 -17 -16 -16 -16 -16 -16 -16 -16 -15
-28 -28 -28 -27 -28 -28 -28 -28 -27 -26 -25 -25 -25 -25 -25 -23 -22 -20 -20 -19 -19 -19 -19 -19 -19 -18 -18 -17 -17 -18 -18 -17 -17 -16 -15 -16 -16 -16